Lid_Strength_Index
2 3 2 2 2 1 2 2 2 2 2 2 1 1 2 3 3 5 7 7 6 9 8 6 6 9 9 10 12 10 9 8 9 12 13 14 14 13 14 13 14 14 15 16 15 17 18 8 9 13 10 8 7 7
2 3 3 3 3 3 3 3 3 3 3 2 2 2 3 3 3 5 8 5 5 7 8 6 5 5 5 7 9 10 9 9 8 11 11 11 13 12 13 16 11 15 12 14 13 13 9 7 8 6 6 7 7 7
3 3 3 4 4 4 4 4 3 3 3 3 3 3 3 4 3 5 7 6 6 9 9 9 10 7 5 6 6 10 9 6 8 7 9 10 13 11 14 13 13 10 9 12 11 10 9 7 6 5 5 6 5 5
3 3 3 4 4 4 4 4 4 3 3 3 3 3 4 4 3 4 7 4 6 8 11 11 5 6 4 5 6 7 7 6 7 7 9 10 12 9 12 11 11 10 9 11 11 9 7 7 6 6 6 5 5 4
3 3 3 3 3 3 3 4 4 4 3 3 3 3 3 3 1 3 5 5 5 7 10 9 6 5 6 5 5 6 7 7 8 10 10 11 9 9 9 9 11 9 10 12 13 8 8 8 6 5 6 7 6 7
3 3 3 3 3 3 3 3 3 3 3 3 3 3 3 3 2 5 8 6 4 4 8 11 7 7 6 5 6 7 7 8 8 8 9 9 7 8 11 12 8 7 6 6 8 6 6 5 5 4 6 6 6 6
4 3 3 3 3 3 3 3 3 3 3 3 3 3 3 3 6 7 8 7 4 5 7 9 10 8 7 6 7 7 7 8 8 9 9 9 8 8 10 13 8 7 6 6 5 5 7 6 6 6 6 6 5 5
2 3 3 3 3 3 3 3 3 3 3 3 3 3 3 4 5 7 5 3 4 6 6 10 11 9 7 9 9 8 8 9 9 9 9 10 9 10 11 9 7 6 6 6 5 5 6 6 6 6 6 6 7 7
1 3 4 3 3 3 3 3 3 3 3 3 3 3 7 7 8 6 0 2 4 5 9 10 12 12 8 9 9 8 9 10 9 10 10 10 12 12 10 9 7 6 7 7 6 7 6 6 6 6 5 6 7 7
1 2 3 4 3 3 3 2 3 3 3 4 6 7 10 8 4 3 6 7 7 8 8 10 10 11 9 9 9 9 10 11 12 10 10 12 12 10 7 7 6 7 6 6 7 7 7 7 6 6 6 6 6 6
1 1 3 3 3 2 2 2 2 3 5 8 8 8 7 3 6 8 10 10 10 10 9 9 10 11 9 10 9 8 11 11 13 11 11 13 12 9 7 7 7 6 6 6 5 6 6 6 6 6 7 6 6 6
1 1 2 2 3 2 2 2 3 6 7 6 6 5 5 7 10 11 13 11 11 11 9 11 10 10 10 8 9 9 11 10 13 10 11 14 10 8 7 7 6 5 5 5 5 6 6 6 6 6 7 7 7 6
-0 1 1 1 2 2 2 2 2 2 3 5 7 8 10 10 15 13 14 12 12 9 9 10 11 10 9 8 9 10 11 12 9 12 13 11 9 7 7 7 6 5 5 5 5 6 5 5 5 5 6 5 6 6
-0 1 1 1 2 1 1 2 2 3 5 8 9 13 12 13 12 10 10 10 8 8 9 10 9 10 10 10 10 11 10 10 13 15 13 10 9 8 7 6 6 6 6 6 6 5 5 5 5 5 5 5 6 6
-0 1 1 1 1 1 1 1 1 4 5 7 7 13 11 9 9 9 8 9 8 8 8 8 9 10 11 11 11 11 13 13 12 13 11 9 8 8 7 6 6 6 6 6 6 6 5 5 6 6 6 6 6 6
0 1 3 1 1 0 1 1 2 3 4 6 7 9 8 9 9 9 10 9 8 8 8 8 9 9 11 11 12 12 12 13 11 10 9 8 7 7 6 6 6 6 6 6 6 6 6 6 6 7 6 6 6 6
1 4 1 1 1 1 1 3 4 5 6 7 8 8 8 9 9 8 8 8 7 8 10 9 10 11 10 12 13 12 12 10 9 9 8 8 7 7 5 5 5 6 6 7 7 7 7 6 6 6 6 6 6 6
3 2 1 1 1 1 2 3 4 5 8 7 9 8 8 7 8 7 6 6 7 7 8 9 8 11 12 12 12 9 8 8 8 9 8 7 6 5 5 5 5 6 6 6 7 6 6 7 7 6 6 6 6 6
2 2 1 1 2 3 5 5 5 8 7 7 6 6 7 7 6 6 6 6 6 6 7 8 9 11 11 9 8 9 8 8 8 8 8 7 6 6 6 5 6 6 6 6 6 6 6 6 6 5 6 6 6 6
2 2 1 1 1 4 6 6 4 7 9 7 7 7 7 7 6 6 6 6 7 8 8 9 9 8 8 8 7 7 8 7 7 8 8 8 6 6 6 6 6 6 6 6 6 7 6 6 5 4 5 6 5 5
3 3 2 2 3 4 6 7 7 7 8 8 7 8 8 7 7 7 7 6 7 9 9 8 7 7 7 7 7 7 7 6 6 7 7 8 7 6 6 6 6 5 6 6 6 6 7 6 5 6 6 5 5 5
5 2 4 3 5 6 7 6 8 7 8 8 8 8 9 9 8 8 6 8 9 8 8 7 7 6 6 6 6 6 5 5 6 7 7 7 7 7 6 6 5 5 4 5 6 5 5 5 5 5 5 5 5 4
3 3 4 5 7 10 10 7 9 9 10 9 9 10 10 9 8 7 9 8 8 7 6 6 6 5 6 6 6 6 5 6 6 6 6 6 6 6 6 5 5 4 5 5 5 5 5 7 6 4 4 5 5 4
3 6 7 8 10 12 9 10 9 10 10 10 11 11 11 10 8 9 10 9 8 7 6 6 6 7 7 7 7 6 6 6 7 7 6 6 6 7 6 6 6 5 5 5 5 5 5 5 6 4 4 4 5 5
11 11 10 14 9 11 11 11 11 12 12 11 11 11 10 9 11 12 11 9 9 7 6 6 6 6 6 8 7 7 6 6 6 6 6 6 6 5 5 6 5 5 5 5 5 4 4 5 4 4 3 4 4 5
16 10 11 9 10 10 11 12 11 11 11 11 11 10 9 10 11 11 10 8 8 7 6 6 6 7 7 7 7 7 6 6 6 6 6 5 5 5 5 6 6 5 4 4 4 4 4 4 4 4 4 4 8 4
10 10 9 7 8 8 9 9 9 10 11 11 10 10 10 12 11 9 7 6 7 6 5 5 6 6 6 7 7 6 6 6 5 5 5 4 4 4 4 5 6 5 4 4 4 3 4 4 4 4 4 4 3 4
8 8 10 8 8 7 8 8 9 9 9 8 8 10 11 10 11 7 7 5 6 6 6 6 5 5 4 4 4 4 5 4 4 4 5 4 4 4 4 4 4 8 4 3 3 3 4 3 3 4 4 4 4 4
9 8 6 8 7 7 8 8 8 7 6 7 9 9 8 7 6 6 6 6 5 5 6 6 6 4 4 4 4 4 4 5 5 6 7 7 7 5 4 4 4 4 4 3 10 7 3 3 2 3 3 4 4 3
9 7 8 8 9 9 7 7 7 5 5 6 6 6 6 6 6 5 6 5 5 5 5 5 6 5 5 4 5 5 5 5 5 6 7 7 6 4 3 3 3 3 3 3 2 4 10 6 6 3 4 4 4 4
7 6 7 7 8 7 6 6 6 5 6 7 7 7 8 7 6 5 5 5 4 4 5 6 6 6 6 6 6 6 7 5 5 4 3 2 2 3 3 2 2 2 2 1 2 4 4 5 4 3 3 3 4 5
6 7 8 9 9 7 6 6 6 7 7 8 8 7 7 8 8 7 6 5 5 5 7 6 6 5 4 4 5 5 8 4 3 2 2 2 2 2 2 2 2 2 2 2 2 3 4 4 4 4 4 4 3 4
7 7 7 8 8 8 7 7 7 7 7 8 8 7 8 8 8 7 5 5 6 6 6 5 5 5 5 5 4 4 7 2 4 8 8 9 9 7 4 4 4 2 2 2 3 3 4 4 4 4 4 3 3 4